Location: Görchsheim
(49.2810°N, 10.4221°E)
Time: 15:09:04
(UTC+00:00)

Daily predictions for brighter satellites

Satellite Brightness Start Highest point End
(mag) Time Altitude Azimuth Time Altitude Azimuth Time Altitude Azimuth
Cosmos 1726 1.8 19:47:37 10° NNW 19:50:45 77° W 19:53:50 10° S
Cosmos 1805 Rocket 4.1 19:46:52 10° N 19:51:06 43° ENE 19:55:19 10° SSE
Cosmos 1980 Rocket 4.5 19:49:06 10° N 19:52:12 15° NNE 19:55:18 10° ENE
Cosmos 1733 3.6 19:52:40 10° N 19:56:01 40° ENE 19:59:19 10° SSE
Cosmos 1842 Rocket 3.7 19:52:08 10° SSW 19:56:33 82° W 20:00:59 10° N
SL-8 R/B 3.7 19:53:54 10° W 19:58:39 83° S 20:03:25 10° E
Ariane Rocket 3.5 19:56:34 10° SE 20:01:25 47° ENE 20:06:18 10° N
Lacrosse 5 rocket 3.3 19:57:57 10° WNW 20:01:41 28° N 20:05:21 10° ENE
USA 234 4.0 19:56:08 10° ENE 20:02:33 59° NNW 20:08:56 10° W
CZ-4C R/B 3.6 20:08:57 10° N 20:12:51 76° WNW 20:16:53 10° SSW
ERS-1 Rocket 3.0 20:08:48 10° SSE 20:13:49 79° ENE 20:18:53 10° NNW
USA 59 Rocket 0.1 20:11:18 10° NW 20:15:10 84° SW 20:20:15 11° SE
SPOT 3 Rocket 3.8 20:10:45 10° SSE 20:15:46 57° ENE 20:20:49 10° N
Cosmos 614 Rocket 4.3 20:11:32 10° S 20:16:29 46° ESE 20:21:27 10° NNE
Cosmos 1818 4.1 20:12:40 10° S 20:17:40 39° ESE 20:22:44 10° NE
Lacrosse 4 Rocket 1.6 20:13:47 10° NNW 20:17:51 61° NE 20:21:37 12° SE
Cosmos 1340 Rocket 2.9 20:14:04 10° S 20:17:59 58° E 20:21:54 10° NNE
NOSS 2-1 (E) 3.7 20:14:21 10° NW 20:18:13 80° SW 20:23:14 12° SE
Meteor 1-27 Rocket 3.7 20:15:04 10° S 20:20:33 72° E 20:26:08 10° NNE
Resurs 01 Rocket 4.1 20:19:22 10° SW 20:22:27 18° W 20:25:34 10° NW
NOSS 8 (A) 4.3 20:18:43 10° SW 20:22:41 76° SE 20:25:50 10° NE
IRS-1C Rocket 4.4 20:18:25 10° S 20:23:39 66° WSW 20:28:54 10° NNW
Okean O Rocket 4.0 20:21:34 10° SW 20:24:54 21° W 20:28:13 10° NW
Terra 1.8 20:24:20 10° SSE 20:29:02 89° SW 20:33:48 10° NNW
Cosmos 1805 3.4 20:26:04 10° N 20:29:43 53° ENE 20:32:42 14° SSE
Cosmos 1833 Rocket 3.9 20:26:09 12° SSE 20:29:53 22° ESE 20:34:06 10° NE
NOSS 2-1 (D) 3.9 20:27:33 10° NW 20:31:22 60° SW 20:35:56 13° SSE
Cosmos 1656 3.8 20:26:53 10° NNW 20:32:22 69° ENE 20:37:08 14° SE
Cosmos 1743 Rocket 3.7 20:30:02 10° NNW 20:34:27 77° W 20:38:54 10° S
Okean 1 4.1 20:37:21 10° SSW 20:41:07 50° WNW 20:44:56 10° N
ARGOS Delta rocket 4.5 20:39:29 10° S 20:44:15 53° W 20:48:48 10° NNW
Centaur D AC-29 4.4 20:38:33 10° SSW 20:44:51 23° SSE 21:06:00 10° ESE
Cosmos 1151 Rocket 3.0 20:43:45 10° S 20:48:06 87° E 20:52:26 10° N
Landsat 5 3.7 20:44:44 10° NNE 20:48:22 43° E 20:51:04 17° SSE
Cosmos 1428 Rocket 4.5 20:43:01 10° S 20:49:02 68° E 20:55:07 10° NNE
Cosmos 1975 2.8 20:47:02 10° N 20:50:59 71° ENE 20:53:47 18° SSE
Cosmos 1992 Rocket 4.1 20:49:13 10° NNW 20:54:27 79° WSW 20:58:33 17° SSE
GEOS 3 Rocket 4.5 20:54:06 10° ENE 20:58:31 28° ESE 21:01:25 17° SSE
MOS 1 Rocket 3.8 20:54:08 13° S 20:58:51 71° WSW 21:04:16 10° NNW
USA 281 3.3 20:54:10 16° SE 20:59:37 78° ENE 21:06:14 10° NNW
Cosmos 220 Rocket 4.1 20:57:53 10° SSW 21:02:12 78° WNW 21:06:32 10° NNE
NOSS 3-3 (A) 3.7 20:58:14 10° SSW 21:03:39 69° SE 21:09:59 10° NE
ARIANE 5 R/B 3.7 21:02:57 16° ESE 21:05:40 31° ENE 21:09:29 10° N
Cosmos 1092 Rocket 4.0 21:01:47 13° S 21:07:28 72° E 21:13:47 10° NNE
Cosmos 1328 Rocket 3.6 21:05:06 19° S 21:08:06 60° E 21:12:22 10° NNE
Cosmos 1340 4.3 21:06:42 10° NW 21:09:32 25° W 21:12:20 10° SSW
Cosmos 2195 Rocket 4.5 21:07:42 10° S 21:13:46 89° W 21:19:56 10° N
BREEZE-M DEB (TANK) 4.4 21:15:40 19° ESE 21:15:40 19° ESE 21:18:08 10° E
Cosmos 1140 Rocket 4.2 21:14:22 21° SSE 21:17:07 35° ESE 21:21:49 10° NE
MetOp-A 3.9 21:14:04 20° S 21:17:27 79° WSW 21:22:34 10° NNW
Cosmos 1515 Rocket 4.3 21:17:03 23° SE 21:19:04 37° E 21:23:03 10° NNE
NOSS 3-4 (A) 4.1 21:12:57 10° NW 21:19:38 67° NE 21:26:14 15° SE
NOSS 3-4 (C) 4.1 21:13:03 10° NW 21:19:44 67° NE 21:26:21 15° SE
Cosmos 1626 1.6 21:17:58 24° S 21:19:44 88° ESE 21:22:59 10° N
Cosmos 1707 3.9 21:26:10 22° ESE 21:27:07 25° E 21:30:09 10° NNE
Cosmos 1697 Rocket 2.7 21:21:51 10° NNW 21:27:31 77° ENE 21:31:08 23° SE
BREEZE-M DEB (TANK) 2.8 21:18:57 10° SW 21:28:29 70° SSE 21:31:25 10° ENE
Cosmos 1470 Rocket 3.5 21:24:48 10° N 21:29:16 79° E 21:31:41 26° SSE
Cosmos 1633 Rocket 3.4 21:27:47 10° NNW 21:32:09 63° W 21:34:53 22° S
Orbus 7S? 3.5 21:31:11 10° SW 21:36:32 51° SE 21:39:32 10° ENE
NOSS 3-3 (C) 3.9 21:31:52 10° SW 21:37:21 82° NW 21:43:56 10° NE
Cosmos 1980 Rocket 2.8 21:32:06 10° NNW 21:37:40 50° NE 21:41:37 19° ESE
Cosmos 1666 Rocket 4.3 21:33:56 10° NNW 21:38:03 44° W 21:40:51 19° SSW
Lacrosse 5 rocket 2.1 21:36:38 10° NW 21:40:45 49° NNE 21:44:15 13° E
SL-8 R/B 3.7 21:36:18 10° W 21:40:58 58° SSW 21:43:38 24° SE
Cosmos 44 Rocket 3.4 21:38:30 10° NW 21:43:24 66° SW 21:45:49 29° SSE
USA 234 4.4 21:38:50 10° ENE 21:45:00 46° N 21:51:09 10° WNW
Cosmos 1842 3.3 21:44:35 35° SSE 21:45:49 55° E 21:49:25 10° NNE
Cosmos 1674 2.5 21:44:53 38° SSE 21:46:00 63° E 21:49:28 10° NNE
Cosmos 1763 Rocket 4.3 21:44:28 10° NNW 21:49:34 45° ENE 21:52:51 20° ESE
Cosmos 1066 Rocket 4.3 21:46:58 18° SSW 21:51:25 83° WNW 21:57:20 10° N
Cosmos 1933 Rocket 3.5 21:49:49 10° N 21:54:13 75° E 21:56:09 33° SSE
Meteor 2-12 Rocket 4.4 21:50:05 22° S 21:54:15 83° E 22:00:27 10° NNE
MINOTAUR 4 R/B 3.5 21:52:19 10° NNE 21:55:17 66° ESE 21:55:42 56° SSE
Lacrosse 4 Rocket 3.5 21:53:01 10° WNW 21:55:42 17° WSW 21:57:32 13° SW
KORONAS-FOTON 3.7 21:55:04 39° SSE 21:56:15 67° E 21:59:57 10° NNE
Cosmos 407 Rocket 3.7 21:56:18 28° S 21:58:50 53° ESE 22:03:55 10° NNE
H-2A R/B 2.6 22:01:54 34° SSE 22:03:40 71° ENE 22:07:58 10° N
USA 59 Rocket 2.5 22:02:23 10° W 22:04:43 14° WSW 22:06:48 11° SW
Cosmos 2369 4.1 21:59:38 10° NNW 22:05:19 60° ENE 22:08:52 23° SE
Cosmos 1607 4.0 21:59:13 10° SW 22:05:41 85° SE 22:12:13 10° NE
Terra 4.3 22:05:25 10° WSW 22:07:20 12° W 22:09:16 10° WNW
Cosmos 1766 4.3 22:04:31 10° NNW 22:07:57 34° W 22:09:34 23° SW
Cosmos 1833 Rocket 3.0 22:07:45 10° SW 22:13:16 68° WNW 22:18:53 10° NNE
ALOS 2 3.1 22:12:16 29° SE 22:14:11 50° ENE 22:18:27 10° N
SL-16 R/B 3.7 22:12:25 10° NNW 22:17:23 30° NE 22:22:21 10° ESE
COSMOS 2406 3.9 22:15:19 28° SSE 22:17:24 38° ESE 22:22:40 10° NE
Cosmos 1758 4.3 22:17:13 10° N 22:20:47 35° ENE 22:22:01 28° ESE
Cosmos 1470 3.2 22:18:56 10° NNW 22:22:31 49° W 22:23:37 36° SW
S3M 4.0 22:19:14 10° N 22:25:41 87° W 22:29:12 29° S
Cosmos 2082 Rocket 2.5 22:23:57 31° S 22:26:25 52° ESE 22:31:58 10° NE
Cosmos 2251 Rocket 3.4 22:24:49 29° SSW 22:27:35 81° ESE 22:32:54 10° NNE
Cosmos 2360 Rocket 4.3 22:24:58 10° N 22:29:20 22° NE 22:33:41 10° E
DELTA 2 R/B (1) 4.4 22:27:14 10° WSW 22:31:29 29° SSW 22:31:29 29° SSW
Meteor 2-10 Rocket 3.9 22:30:14 10° N 22:36:04 69° ENE 22:38:54 30° SSE
GEOS 3 Rocket 3.9 22:31:42 10° NE 22:36:52 68° NW 22:41:56 10° SW
SL-08 ROCKET BODY 4.4 22:34:31 29° S 22:37:56 88° E 22:44:08 10° N
Cosmos 1908 3.6 22:35:01 10° NNW 22:38:28 46° W 22:39:14 38° SW
ARIANE 5 R/B 3.8 22:40:25 24° SW 22:42:03 31° W 22:45:55 10° NNW
Meteor 1-13 Rocket 4.4 22:40:24 27° SSW 22:43:45 78° WNW 22:49:37 10° N
Cosmos 2315 Rocket 4.0 22:39:55 10° N 22:46:17 88° W 22:49:34 31° S
H-2A R/B 3.0 22:44:32 10° NNE 22:48:36 35° E 22:49:42 30° SE
USA 267 4.3 22:44:46 10° ENE 22:49:56 24° SE 22:51:04 23° SE
Cosmos 2285 Rocket 4.4 22:48:47 17° SW 22:53:45 61° WNW 23:00:04 10° NNE
Cosmos 1346 Rocket 3.1 22:54:02 10° N 22:57:53 55° ENE 22:58:57 40° SE
Meteor 1-22 Rocket 4.3 22:53:28 10° NNW 22:58:45 61° W 23:01:09 33° SSW
Spot 4 4.4 22:58:19 32° SSW 23:00:03 45° W 23:04:39 10° NNW
SL-4 R/B 4.4 23:02:20 11° ESE 23:02:20 11° ESE 23:02:41 10° ESE
Cosmos 1733 Rocket 3.0 22:57:26 10° N 23:01:49 83° E 23:03:12 43° SSE
Cosmos 1707 4.3 23:00:27 19° WSW 23:02:03 25° WNW 23:05:09 10° NNW
Cosmos 2278 3.9 22:57:52 10° NNW 23:03:37 70° ENE 23:07:01 25° SE
Cosmos 1400 Rocket 2.7 23:02:59 48° SSW 23:04:01 85° WNW 23:08:00 10° N
Cosmos 2266 Rocket 4.4 23:02:10 23° SW 23:06:00 55° WNW 23:12:13 10° N
Cosmos 1300 2.4 23:02:33 10° NNW 23:06:07 78° W 23:06:40 60° SSW
SL-24 R/B 4.4 23:02:03 10° NNE 23:06:53 80° ESE 23:09:07 35° S
Cosmos 1697 Rocket 4.4 23:06:56 10° NW 23:10:48 19° W 23:12:51 16° SW
Cosmos 1441 Rocket 4.4 23:08:31 10° NW 23:11:33 26° W 23:12:05 25° WSW
Cosmos 2322 Rocket 3.1 23:06:57 10° NNW 23:12:23 44° NE 23:17:17 13° ESE
Cosmos 841 Rocket 3.6 23:08:06 10° NNW 23:13:21 71° ENE 23:16:05 29° SE
Meteor 1-21 4.3 23:11:02 34° S 23:13:37 75° E 23:19:24 10° NNE
Lacrosse 5 rocket 1.8 23:15:10 10° WNW 23:19:03 40° SW 23:19:03 40° SW
Okean 1-7 3.7 23:18:10 34° SE 23:19:26 44° E 23:23:33 10° NNE
Cosmos 2228 Rocket 3.2 23:19:15 38° SSW 23:20:51 68° W 23:25:24 10° N
Cosmos 1980 Rocket 3.2 23:16:27 10° NW 23:21:27 32° WSW 23:23:22 26° SW
USA 234 3.8 23:21:01 10° E 23:27:27 61° NNE 23:33:54 10° WNW
Cosmos 2333 Rocket 3.3 23:22:29 10° NNW 23:27:57 43° NE 23:33:23 10° ESE
Cosmos 1356 Rocket 3.3 23:27:09 46° SSW 23:28:18 82° W 23:32:30 10° N
Cosmos 540 Rocket 4.1 23:23:59 10° NW 23:28:50 42° WSW 23:30:29 32° SSW
Cosmos 1953 2.6 23:27:07 10° N 23:30:58 56° ENE 23:32:08 38° SE
Genesis I 3.7 23:33:03 37° ESE 23:33:03 37° ESE 23:36:15 10° NE
GP-B 3.7 23:32:31 10° N 23:36:45 46° W 23:38:18 32° SW
SL-14 R/B 4.0 23:36:11 33° WSW 23:37:17 42° WNW 23:40:57 10° N
Cosmos 1703 Rocket 4.1 23:38:29 33° SE 23:40:01 48° E 23:44:20 10° NNE
Cosmos 1455 2.2 23:39:01 10° N 23:42:28 62° ENE 23:43:13 47° SE
Cosmos 1862 Rocket 3.9 23:42:08 35° SW 23:43:39 54° WNW 23:47:57 10° N
Aureole 3 3.1 23:44:34 47° W 23:44:52 49° WNW 23:48:05 10° N
SJ 16-02 2.7 23:45:36 22° SE 23:46:54 26° E 23:50:30 10° NE
Cosmos 676 Rocket 4.4 23:44:45 27° SW 23:47:37 61° WNW 23:52:56 10° NNE
RESURS DK-1 3.2 23:44:21 10° NNW 23:48:17 46° NE 23:51:07 17° ESE
ALOS 2 4.3 23:49:40 18° WSW 23:50:48 20° W 23:54:03 10° NW
